Year,Month,Day,Hour,Minute,Value (Times are PST for temperature in C)
2014,07,18,00,00,18.00
2014,07,18,00,01,17.90
2014,07,18,00,02,17.90
2014,07,18,00,03,17.90
2014,07,18,00,04,17.90
2014,07,18,00,05,17.90
2014,07,18,00,06,17.90
2014,07,18,00,07,17.90
2014,07,18,00,08,17.90
2014,07,18,00,09,17.90
2014,07,18,00,10,17.90
2014,07,18,00,11,17.90
2014,07,18,00,12,17.90
2014,07,18,00,13,17.80
2014,07,18,00,14,17.80
2014,07,18,00,15,17.80
2014,07,18,00,16,17.80
2014,07,18,00,17,17.80
2014,07,18,00,18,17.80
2014,07,18,00,19,17.80
2014,07,18,00,20,17.70
2014,07,18,00,21,17.70
2014,07,18,00,22,17.70
2014,07,18,00,23,17.70
2014,07,18,00,24,17.60
2014,07,18,00,25,17.60
2014,07,18,00,26,17.60
2014,07,18,00,27,17.60
2014,07,18,00,28,17.60
2014,07,18,00,29,17.60
2014,07,18,00,30,17.50
2014,07,18,00,31,17.50
2014,07,18,00,32,17.50
2014,07,18,00,33,17.50
2014,07,18,00,34,17.40
2014,07,18,00,35,17.40
2014,07,18,00,36,17.40
2014,07,18,00,37,17.40
2014,07,18,00,38,17.40
2014,07,18,00,39,17.30
2014,07,18,00,40,17.30
2014,07,18,00,41,17.30
2014,07,18,00,42,17.30
2014,07,18,00,43,17.20
2014,07,18,00,44,17.20
2014,07,18,00,45,17.10
2014,07,18,00,46,17.10
2014,07,18,00,47,17.00
2014,07,18,00,48,17.00
2014,07,18,00,49,16.90
2014,07,18,00,50,16.90
2014,07,18,00,51,16.90
2014,07,18,00,52,16.90
2014,07,18,00,53,16.90
2014,07,18,00,54,16.80
2014,07,18,00,55,16.80
2014,07,18,00,56,16.80
2014,07,18,00,57,16.80
2014,07,18,00,58,16.80
2014,07,18,00,59,16.70
2014,07,18,01,00,16.70
2014,07,18,01,01,16.70
2014,07,18,01,02,16.60
2014,07,18,01,03,16.60
2014,07,18,01,04,16.60
2014,07,18,01,05,16.60
2014,07,18,01,06,16.60
2014,07,18,01,07,16.50
2014,07,18,01,08,16.50
2014,07,18,01,09,16.50
2014,07,18,01,10,16.40
2014,07,18,01,11,16.40
2014,07,18,01,12,16.40
2014,07,18,01,13,16.40
2014,07,18,01,14,16.30
2014,07,18,01,15,16.30
2014,07,18,01,16,16.20
2014,07,18,01,17,16.20
2014,07,18,01,18,16.10
2014,07,18,01,19,16.10
2014,07,18,01,20,16.10
2014,07,18,01,21,16.10
2014,07,18,01,22,16.10
2014,07,18,01,23,16.10
2014,07,18,01,24,16.10
2014,07,18,01,25,16.00
2014,07,18,01,26,16.00
2014,07,18,01,27,16.00
2014,07,18,01,28,15.90
2014,07,18,01,29,15.90
2014,07,18,01,30,15.90
2014,07,18,01,31,15.90
2014,07,18,01,32,15.90
2014,07,18,01,33,15.80
2014,07,18,01,34,15.80
2014,07,18,01,35,15.80
2014,07,18,01,36,15.80
2014,07,18,01,37,15.80
2014,07,18,01,38,15.80
2014,07,18,01,39,15.70
2014,07,18,01,40,15.70
2014,07,18,01,41,15.70
2014,07,18,01,42,15.70
2014,07,18,01,43,15.70
2014,07,18,01,44,15.60
2014,07,18,01,45,15.60
2014,07,18,01,46,15.60
2014,07,18,01,47,15.50
2014,07,18,01,48,15.50
2014,07,18,01,49,15.50
2014,07,18,01,50,15.40
2014,07,18,01,51,15.50
2014,07,18,01,52,15.50
2014,07,18,01,53,15.50
2014,07,18,01,54,15.50
2014,07,18,01,55,15.50
2014,07,18,01,56,15.50
2014,07,18,01,57,15.50
2014,07,18,01,58,15.50
2014,07,18,01,59,15.50
2014,07,18,02,00,15.40
2014,07,18,02,01,15.40
2014,07,18,02,02,15.40
2014,07,18,02,03,15.40
2014,07,18,02,04,15.40
2014,07,18,02,05,15.30
2014,07,18,02,06,15.30
2014,07,18,02,07,15.30
2014,07,18,02,08,15.30
2014,07,18,02,09,15.20
2014,07,18,02,10,15.20
2014,07,18,02,11,15.20
2014,07,18,02,12,15.20
2014,07,18,02,13,15.10
2014,07,18,02,14,15.10
2014,07,18,02,15,15.10
2014,07,18,02,16,15.20
2014,07,18,02,17,15.20
2014,07,18,02,18,15.10
2014,07,18,02,19,15.10
2014,07,18,02,20,15.10
2014,07,18,02,21,15.10
2014,07,18,02,22,15.10
2014,07,18,02,23,15.10
2014,07,18,02,24,15.10
2014,07,18,02,25,15.10
2014,07,18,02,26,15.10
2014,07,18,02,27,15.00
2014,07,18,02,28,15.00
2014,07,18,02,29,15.00
2014,07,18,02,30,15.00
2014,07,18,02,31,15.10
2014,07,18,02,32,15.10
2014,07,18,02,33,15.20
2014,07,18,02,34,15.20
2014,07,18,02,35,15.20
2014,07,18,02,36,15.20
2014,07,18,02,37,15.20
2014,07,18,02,38,15.10
2014,07,18,02,39,15.10
2014,07,18,02,40,15.00
2014,07,18,02,41,15.00
2014,07,18,02,42,15.00
2014,07,18,02,43,15.00
2014,07,18,02,44,15.00
2014,07,18,02,45,15.00
2014,07,18,02,46,15.00
2014,07,18,02,47,14.90
2014,07,18,02,48,14.90
2014,07,18,02,49,14.80
2014,07,18,02,50,14.80
2014,07,18,02,51,14.70
2014,07,18,02,52,14.70
2014,07,18,02,53,14.70
2014,07,18,02,54,14.60
2014,07,18,02,55,14.60
2014,07,18,02,56,14.50
2014,07,18,02,57,14.50
2014,07,18,02,58,14.40
2014,07,18,02,59,14.40
2014,07,18,03,00,14.30
2014,07,18,03,01,14.30
2014,07,18,03,02,14.30
2014,07,18,03,03,14.20
2014,07,18,03,04,14.20
2014,07,18,03,05,14.20
2014,07,18,03,06,14.20
2014,07,18,03,07,14.10
2014,07,18,03,08,14.10
2014,07,18,03,09,14.10
2014,07,18,03,10,14.00
2014,07,18,03,11,14.00
2014,07,18,03,12,13.90
2014,07,18,03,13,13.90
2014,07,18,03,14,13.90
2014,07,18,03,15,13.90
2014,07,18,03,16,13.90
2014,07,18,03,17,13.90
2014,07,18,03,18,13.90
2014,07,18,03,19,13.80
2014,07,18,03,20,13.80
2014,07,18,03,21,13.80
2014,07,18,03,22,13.80
2014,07,18,03,23,13.80
2014,07,18,03,24,13.80
2014,07,18,03,25,13.80
2014,07,18,03,26,13.80
2014,07,18,03,27,13.70
2014,07,18,03,28,13.70
2014,07,18,03,29,13.70
2014,07,18,03,30,13.70
2014,07,18,03,31,13.70
2014,07,18,03,32,13.70
2014,07,18,03,33,13.70
2014,07,18,03,34,13.70
2014,07,18,03,35,13.60
2014,07,18,03,36,13.60
2014,07,18,03,37,13.60
2014,07,18,03,38,13.60
2014,07,18,03,39,13.60
2014,07,18,03,40,13.60
2014,07,18,03,41,13.60
2014,07,18,03,42,13.50
2014,07,18,03,43,13.50
2014,07,18,03,44,13.50
2014,07,18,03,45,13.50
2014,07,18,03,46,13.40
2014,07,18,03,47,13.40
2014,07,18,03,48,13.40
2014,07,18,03,49,13.40
2014,07,18,03,50,13.40
2014,07,18,03,51,13.40
2014,07,18,03,52,13.40
2014,07,18,03,53,13.40
2014,07,18,03,54,13.40
2014,07,18,03,55,13.30
2014,07,18,03,56,13.30
2014,07,18,03,57,13.30
2014,07,18,03,58,13.30
2014,07,18,03,59,13.30
2014,07,18,04,00,13.30
2014,07,18,04,01,13.20
2014,07,18,04,02,13.20
2014,07,18,04,03,13.20
2014,07,18,04,04,13.20
2014,07,18,04,05,13.20
2014,07,18,04,06,13.20
2014,07,18,04,07,13.20
2014,07,18,04,08,13.20
2014,07,18,04,09,13.20
2014,07,18,04,10,13.10
2014,07,18,04,11,13.10
2014,07,18,04,12,13.10
2014,07,18,04,13,13.10
2014,07,18,04,14,13.10
2014,07,18,04,15,13.10
2014,07,18,04,16,13.00
2014,07,18,04,17,13.00
2014,07,18,04,18,13.00
2014,07,18,04,19,12.90
2014,07,18,04,20,12.90
2014,07,18,04,21,12.90
2014,07,18,04,22,12.90
2014,07,18,04,23,12.90
2014,07,18,04,24,12.90
2014,07,18,04,25,12.90
2014,07,18,04,26,12.90
2014,07,18,04,27,12.90
2014,07,18,04,28,12.90
2014,07,18,04,29,12.90
2014,07,18,04,30,12.90
2014,07,18,04,31,12.90
2014,07,18,04,32,12.90
2014,07,18,04,33,12.90
2014,07,18,04,34,12.90
2014,07,18,04,35,12.80
2014,07,18,04,36,12.80
2014,07,18,04,37,12.80
2014,07,18,04,38,12.80
2014,07,18,04,39,12.80
2014,07,18,04,40,12.80
2014,07,18,04,41,12.70
2014,07,18,04,42,12.70
2014,07,18,04,43,12.70
2014,07,18,04,44,12.70
2014,07,18,04,45,12.70
2014,07,18,04,46,12.70
2014,07,18,04,47,12.70
2014,07,18,04,48,12.70
2014,07,18,04,49,12.70
2014,07,18,04,50,12.70
2014,07,18,04,51,12.70
2014,07,18,04,52,12.70
2014,07,18,04,53,12.70
2014,07,18,04,54,12.70
2014,07,18,04,55,12.70
2014,07,18,04,56,12.70
2014,07,18,04,57,12.70
2014,07,18,04,58,12.70
2014,07,18,04,59,12.70
2014,07,18,05,00,12.70
2014,07,18,05,01,12.60
2014,07,18,05,02,12.60
2014,07,18,05,03,12.60
2014,07,18,05,04,12.60
2014,07,18,05,05,12.60
2014,07,18,05,06,12.60
2014,07,18,05,07,12.60
2014,07,18,05,08,12.60
2014,07,18,05,09,12.60
2014,07,18,05,10,12.60
2014,07,18,05,11,12.60
2014,07,18,05,12,12.50
2014,07,18,05,13,12.50
2014,07,18,05,14,12.50
2014,07,18,05,15,12.50
2014,07,18,05,16,12.50
2014,07,18,05,17,12.50
2014,07,18,05,18,12.50
2014,07,18,05,19,12.50
2014,07,18,05,20,12.50
2014,07,18,05,21,12.50
2014,07,18,05,22,12.40
2014,07,18,05,23,12.40
2014,07,18,05,24,12.40
2014,07,18,05,25,12.40
2014,07,18,05,26,12.40
2014,07,18,05,27,12.40
2014,07,18,05,28,12.40
2014,07,18,05,29,12.40
2014,07,18,05,30,12.40
2014,07,18,05,31,12.30
2014,07,18,05,32,12.30
2014,07,18,05,33,12.30
2014,07,18,05,34,12.30
2014,07,18,05,35,12.30
2014,07,18,05,36,12.30
2014,07,18,05,37,12.30
2014,07,18,05,38,12.30
2014,07,18,05,39,12.30
2014,07,18,05,40,12.30
2014,07,18,05,41,12.30
2014,07,18,05,42,12.30
2014,07,18,05,43,12.30
2014,07,18,05,44,12.30
2014,07,18,05,45,12.30
2014,07,18,05,46,12.30
2014,07,18,05,47,12.30
2014,07,18,05,48,12.30
2014,07,18,05,49,12.30
2014,07,18,05,50,12.30
2014,07,18,05,51,12.30
2014,07,18,05,52,12.30
2014,07,18,05,53,12.30
2014,07,18,05,54,12.30
2014,07,18,05,55,12.40
2014,07,18,05,56,12.40
2014,07,18,05,57,12.40
2014,07,18,05,58,12.40
2014,07,18,05,59,12.40
2014,07,18,06,00,12.50
2014,07,18,06,01,12.50
2014,07,18,06,02,12.50
2014,07,18,06,03,12.50
2014,07,18,06,04,12.50
2014,07,18,06,05,12.60
2014,07,18,06,06,12.60
2014,07,18,06,07,12.60
2014,07,18,06,08,12.60
2014,07,18,06,09,12.60
2014,07,18,06,10,12.70
2014,07,18,06,11,12.70
2014,07,18,06,12,12.70
2014,07,18,06,13,12.70
2014,07,18,06,14,12.70
2014,07,18,06,15,12.80
2014,07,18,06,16,12.80
2014,07,18,06,17,12.80
2014,07,18,06,18,12.90
2014,07,18,06,19,12.90
2014,07,18,06,20,13.00
2014,07,18,06,21,13.00
2014,07,18,06,22,13.00
2014,07,18,06,23,13.10
2014,07,18,06,24,13.10
2014,07,18,06,25,13.20
2014,07,18,06,26,13.20
2014,07,18,06,27,13.30
2014,07,18,06,28,13.30
2014,07,18,06,29,13.30
2014,07,18,06,30,13.40
2014,07,18,06,31,13.40
2014,07,18,06,32,13.40
2014,07,18,06,33,13.40
2014,07,18,06,34,13.50
2014,07,18,06,35,13.50
2014,07,18,06,36,13.60
2014,07,18,06,37,13.60
2014,07,18,06,38,13.60
2014,07,18,06,39,13.70
2014,07,18,06,40,13.70
2014,07,18,06,41,13.70
2014,07,18,06,42,13.70
2014,07,18,06,43,13.80
2014,07,18,06,44,13.80
2014,07,18,06,45,13.80
2014,07,18,06,46,13.90
2014,07,18,06,47,13.90
2014,07,18,06,48,13.90
2014,07,18,06,49,13.90
2014,07,18,06,50,14.00
2014,07,18,06,51,14.00
2014,07,18,06,52,14.10
2014,07,18,06,53,14.10
2014,07,18,06,54,14.20
2014,07,18,06,55,14.20
2014,07,18,06,56,14.20
2014,07,18,06,57,14.30
2014,07,18,06,58,14.30
2014,07,18,06,59,14.30
2014,07,18,07,00,14.40
2014,07,18,07,01,14.40
2014,07,18,07,02,14.40
2014,07,18,07,03,14.50
2014,07,18,07,04,14.50
2014,07,18,07,05,14.60
2014,07,18,07,06,14.60
2014,07,18,07,07,14.60
2014,07,18,07,08,14.70
2014,07,18,07,09,14.70
2014,07,18,07,10,14.70
2014,07,18,07,11,14.80
2014,07,18,07,12,14.80
2014,07,18,07,13,14.80
2014,07,18,07,14,14.90
2014,07,18,07,15,15.00
2014,07,18,07,16,15.00
2014,07,18,07,17,15.00
2014,07,18,07,18,15.00
2014,07,18,07,19,15.00
2014,07,18,07,20,15.10
2014,07,18,07,21,15.10
2014,07,18,07,22,15.20
2014,07,18,07,23,15.30
2014,07,18,07,24,15.40
2014,07,18,07,25,15.40
2014,07,18,07,26,15.50
2014,07,18,07,27,15.60
2014,07,18,07,28,15.70
2014,07,18,07,29,15.80
2014,07,18,07,30,15.80
2014,07,18,07,31,15.90
2014,07,18,07,32,16.00
2014,07,18,07,33,16.10
2014,07,18,07,34,16.20
2014,07,18,07,35,16.30
2014,07,18,07,36,16.30
2014,07,18,07,37,16.40
2014,07,18,07,38,16.50
2014,07,18,07,39,16.60
2014,07,18,07,40,16.70
2014,07,18,07,41,16.80
2014,07,18,07,42,16.80
2014,07,18,07,43,16.90
2014,07,18,07,44,17.00
2014,07,18,07,45,17.00
2014,07,18,07,46,17.10
2014,07,18,07,47,17.10
2014,07,18,07,48,17.20
2014,07,18,07,49,17.30
2014,07,18,07,50,17.40
2014,07,18,07,51,17.50
2014,07,18,07,52,17.60
2014,07,18,07,53,17.70
2014,07,18,07,54,17.80
2014,07,18,07,55,17.80
2014,07,18,07,56,17.90
2014,07,18,07,57,18.00
2014,07,18,07,58,18.10
2014,07,18,07,59,18.10
2014,07,18,08,00,18.20
2014,07,18,08,01,18.20
2014,07,18,08,02,18.30
2014,07,18,08,03,18.30
2014,07,18,08,04,18.40
2014,07,18,08,05,18.40
2014,07,18,08,06,18.40
2014,07,18,08,07,18.40
2014,07,18,08,08,18.50
2014,07,18,08,09,18.50
2014,07,18,08,10,18.50
2014,07,18,08,11,18.50
2014,07,18,08,12,18.40
2014,07,18,08,13,18.50
2014,07,18,08,14,18.50
2014,07,18,08,15,18.50
2014,07,18,08,16,18.50
2014,07,18,08,17,18.60
2014,07,18,08,18,18.60
2014,07,18,08,19,18.60
2014,07,18,08,20,18.60
2014,07,18,08,21,18.60
2014,07,18,08,22,18.60
2014,07,18,08,23,18.60
2014,07,18,08,24,18.70
2014,07,18,08,25,18.70
2014,07,18,08,26,18.80
2014,07,18,08,27,18.80
2014,07,18,08,28,18.80
2014,07,18,08,29,18.80
2014,07,18,08,30,18.80
2014,07,18,08,31,18.80
2014,07,18,08,32,18.90
2014,07,18,08,33,19.00
2014,07,18,08,34,19.10
2014,07,18,08,35,19.20
2014,07,18,08,36,19.30
2014,07,18,08,37,19.30
2014,07,18,08,38,19.40
2014,07,18,08,39,19.40
2014,07,18,08,40,19.40
2014,07,18,08,41,19.40
2014,07,18,08,42,19.40
2014,07,18,08,43,19.40
2014,07,18,08,44,19.40
2014,07,18,08,45,19.50
2014,07,18,08,46,19.50
2014,07,18,08,47,19.60
2014,07,18,08,48,19.60
2014,07,18,08,49,19.70
2014,07,18,08,50,19.70
2014,07,18,08,51,19.80
2014,07,18,08,52,19.80
2014,07,18,08,53,19.90
2014,07,18,08,54,19.90
2014,07,18,08,55,20.00
2014,07,18,08,56,20.00
2014,07,18,08,57,20.10
2014,07,18,08,58,20.10
2014,07,18,08,59,20.10
2014,07,18,09,00,20.10
2014,07,18,09,01,20.10
2014,07,18,09,02,20.10
2014,07,18,09,03,20.10
2014,07,18,09,04,20.10
2014,07,18,09,05,20.10
2014,07,18,09,06,20.20
2014,07,18,09,07,20.20
2014,07,18,09,08,20.20
2014,07,18,09,09,20.30
2014,07,18,09,10,20.20
2014,07,18,09,11,20.20
2014,07,18,09,12,20.20
2014,07,18,09,13,20.10
2014,07,18,09,14,20.10
2014,07,18,09,15,20.10
2014,07,18,09,16,20.10
2014,07,18,09,17,20.10
2014,07,18,09,18,20.00
2014,07,18,09,19,20.00
2014,07,18,09,20,20.00
2014,07,18,09,21,20.00
2014,07,18,09,22,20.00
2014,07,18,09,23,20.10
2014,07,18,09,24,20.10
2014,07,18,09,25,20.10
2014,07,18,09,26,20.10
2014,07,18,09,27,20.10
2014,07,18,09,28,20.10
2014,07,18,09,29,20.10
2014,07,18,09,30,20.10
2014,07,18,09,31,20.10
2014,07,18,09,32,20.10
2014,07,18,09,33,20.10
2014,07,18,09,34,20.10
2014,07,18,09,35,20.20
2014,07,18,09,36,20.20
2014,07,18,09,37,20.30
2014,07,18,09,38,20.30
2014,07,18,09,39,20.20
2014,07,18,09,40,20.20
2014,07,18,09,41,20.20
2014,07,18,09,42,20.20
2014,07,18,09,43,20.20
2014,07,18,09,44,20.30
2014,07,18,09,45,20.30
2014,07,18,09,46,20.30
2014,07,18,09,47,20.40
2014,07,18,09,48,20.50
2014,07,18,09,49,20.60
2014,07,18,09,50,20.70
2014,07,18,09,51,20.70
2014,07,18,09,52,20.80
2014,07,18,09,53,21.00
2014,07,18,09,54,21.10
2014,07,18,09,55,21.20
2014,07,18,09,56,21.30
2014,07,18,09,57,21.30
2014,07,18,09,58,21.30
2014,07,18,09,59,21.20
2014,07,18,10,00,21.20
2014,07,18,10,01,21.10
2014,07,18,10,02,21.00
2014,07,18,10,03,21.00
2014,07,18,10,04,20.90
2014,07,18,10,05,20.80
2014,07,18,10,06,20.70
2014,07,18,10,07,20.70
2014,07,18,10,08,20.70
2014,07,18,10,09,20.70
2014,07,18,10,10,20.70
2014,07,18,10,11,20.40
2014,07,18,10,12,20.30
2014,07,18,10,13,20.30
2014,07,18,10,14,20.30
2014,07,18,10,15,20.20
2014,07,18,10,16,20.20
2014,07,18,10,17,20.20
2014,07,18,10,18,20.10
2014,07,18,10,19,20.00
2014,07,18,10,20,19.90
2014,07,18,10,21,19.80
2014,07,18,10,22,19.80
2014,07,18,10,23,19.80
2014,07,18,10,24,19.80
2014,07,18,10,25,19.80
2014,07,18,10,26,19.90
2014,07,18,10,27,19.90
2014,07,18,10,28,19.90
2014,07,18,10,29,19.90
2014,07,18,10,30,19.80
2014,07,18,10,31,19.80
2014,07,18,10,32,19.70
2014,07,18,10,33,19.60
2014,07,18,10,34,19.60
2014,07,18,10,35,19.60
2014,07,18,10,36,19.50
2014,07,18,10,37,19.50
2014,07,18,10,38,19.50
2014,07,18,10,39,19.50
2014,07,18,10,40,19.50
2014,07,18,10,41,19.50
2014,07,18,10,42,19.50
2014,07,18,10,43,19.50
2014,07,18,10,44,19.40
2014,07,18,10,45,19.40
2014,07,18,10,46,19.50
2014,07,18,10,47,19.50
2014,07,18,10,48,19.50
2014,07,18,10,49,19.50
2014,07,18,10,50,19.40
2014,07,18,10,51,19.50
2014,07,18,10,52,19.50
2014,07,18,10,53,19.50
2014,07,18,10,54,19.60
2014,07,18,10,55,19.70
2014,07,18,10,56,19.70
2014,07,18,10,57,19.70
2014,07,18,10,58,19.70
2014,07,18,10,59,19.70
2014,07,18,11,00,19.70
2014,07,18,11,01,19.70
2014,07,18,11,02,19.70
2014,07,18,11,03,19.80
2014,07,18,11,04,19.80
2014,07,18,11,05,19.80
2014,07,18,11,06,19.90
2014,07,18,11,07,19.90
2014,07,18,11,08,20.00
2014,07,18,11,09,20.00
2014,07,18,11,10,20.00
2014,07,18,11,11,20.00
2014,07,18,11,12,19.90
2014,07,18,11,13,19.90
2014,07,18,11,14,19.90
2014,07,18,11,15,19.90
2014,07,18,11,16,19.90
2014,07,18,11,17,19.80
2014,07,18,11,18,19.80
2014,07,18,11,19,19.70
2014,07,18,11,20,19.70
2014,07,18,11,21,19.70
2014,07,18,11,22,19.70
2014,07,18,11,23,19.80
2014,07,18,11,24,19.70
2014,07,18,11,25,19.70
2014,07,18,11,26,19.70
2014,07,18,11,27,19.70
2014,07,18,11,28,19.70
2014,07,18,11,29,19.60
2014,07,18,11,30,19.60
2014,07,18,11,31,19.50
2014,07,18,11,32,19.50
2014,07,18,11,33,19.40
2014,07,18,11,34,19.40
2014,07,18,11,35,19.40
2014,07,18,11,36,19.40
2014,07,18,11,37,19.30
2014,07,18,11,38,19.30
2014,07,18,11,39,19.30
2014,07,18,11,40,19.30
2014,07,18,11,41,19.40
2014,07,18,11,42,19.40
2014,07,18,11,43,19.50
2014,07,18,11,44,19.60
2014,07,18,11,45,19.60
2014,07,18,11,46,19.70
2014,07,18,11,47,19.80
2014,07,18,11,48,19.80
2014,07,18,11,49,19.80
2014,07,18,11,50,19.70
2014,07,18,11,51,19.70
2014,07,18,11,52,19.70
2014,07,18,11,53,19.70
2014,07,18,11,54,19.70
2014,07,18,11,55,19.70
2014,07,18,11,56,19.70
2014,07,18,11,57,19.70
2014,07,18,11,58,19.70
2014,07,18,11,59,19.70
2014,07,18,12,00,19.70
2014,07,18,12,01,19.70
2014,07,18,12,02,19.80
2014,07,18,12,03,19.80
2014,07,18,12,04,19.70
2014,07,18,12,05,19.70
2014,07,18,12,06,19.70
2014,07,18,12,07,19.70
2014,07,18,12,08,19.70
2014,07,18,12,09,19.70
2014,07,18,12,10,19.60
2014,07,18,12,11,19.60
2014,07,18,12,12,19.60
2014,07,18,12,13,19.60
2014,07,18,12,14,19.60
2014,07,18,12,15,19.60
2014,07,18,12,16,19.60
2014,07,18,12,17,19.60
2014,07,18,12,18,19.60
2014,07,18,12,19,19.60
2014,07,18,12,20,19.60
2014,07,18,12,21,19.50
2014,07,18,12,22,19.50
2014,07,18,12,23,19.40
2014,07,18,12,24,19.40
2014,07,18,12,25,19.40
2014,07,18,12,26,19.40
2014,07,18,12,27,19.40
2014,07,18,12,28,19.40
2014,07,18,12,29,19.50
2014,07,18,12,30,19.60
2014,07,18,12,31,19.70
2014,07,18,12,32,19.80
2014,07,18,12,33,19.80
2014,07,18,12,34,19.90
2014,07,18,12,35,19.90
2014,07,18,12,36,19.90
2014,07,18,12,37,19.90
2014,07,18,12,38,20.00
2014,07,18,12,39,20.00
2014,07,18,12,40,20.10
2014,07,18,12,41,20.10
2014,07,18,12,42,20.10
2014,07,18,12,43,20.00
2014,07,18,12,44,20.00
2014,07,18,12,45,20.00
2014,07,18,12,46,19.90
2014,07,18,12,47,19.80
2014,07,18,12,48,19.80
2014,07,18,12,49,19.70
2014,07,18,12,50,19.80
2014,07,18,12,51,19.80
2014,07,18,12,52,19.80
2014,07,18,12,53,19.90
2014,07,18,12,54,19.90
2014,07,18,12,55,20.00
2014,07,18,12,56,19.90
2014,07,18,12,57,19.90
2014,07,18,12,58,19.90
2014,07,18,12,59,19.90
2014,07,18,13,00,19.90
2014,07,18,13,01,19.90
2014,07,18,13,02,20.00
2014,07,18,13,03,20.00
2014,07,18,13,04,20.10
2014,07,18,13,05,20.30
2014,07,18,13,06,20.40
2014,07,18,13,07,20.40
2014,07,18,13,08,20.40
2014,07,18,13,09,20.40
2014,07,18,13,10,20.40
2014,07,18,13,11,20.40
2014,07,18,13,12,20.50
2014,07,18,13,13,20.60
2014,07,18,13,14,20.60
2014,07,18,13,15,20.60
2014,07,18,13,16,20.70
2014,07,18,13,17,20.80
2014,07,18,13,18,20.90
2014,07,18,13,19,21.00
2014,07,18,13,20,21.10
2014,07,18,13,21,21.20
2014,07,18,13,22,21.20
2014,07,18,13,23,21.20
2014,07,18,13,24,21.20
2014,07,18,13,25,21.30
2014,07,18,13,26,21.40
2014,07,18,13,27,21.40
2014,07,18,13,28,21.50
2014,07,18,13,29,21.60
2014,07,18,13,30,21.70
2014,07,18,13,31,21.70
2014,07,18,13,32,21.80
2014,07,18,13,33,21.80
2014,07,18,13,34,21.80
2014,07,18,13,35,21.60
2014,07,18,13,36,21.50
2014,07,18,13,37,21.50
2014,07,18,13,38,21.50
2014,07,18,13,39,21.60
2014,07,18,13,40,21.70
2014,07,18,13,41,21.70
2014,07,18,13,42,21.70
2014,07,18,13,43,21.70
2014,07,18,13,44,21.70
2014,07,18,13,45,21.80
2014,07,18,13,46,21.80
2014,07,18,13,47,21.80
2014,07,18,13,48,21.80
2014,07,18,13,49,21.80
2014,07,18,13,50,21.90
2014,07,18,13,51,22.00
2014,07,18,13,52,22.10
2014,07,18,13,53,22.10
2014,07,18,13,54,22.00
2014,07,18,13,55,22.00
2014,07,18,13,56,21.90
2014,07,18,13,57,21.80
2014,07,18,13,58,21.70
2014,07,18,13,59,21.60
2014,07,18,14,00,21.60
2014,07,18,14,01,21.60
2014,07,18,14,02,21.60
2014,07,18,14,03,21.60
2014,07,18,14,04,21.70
2014,07,18,14,05,21.70
2014,07,18,14,06,21.70
2014,07,18,14,07,21.60
2014,07,18,14,08,21.60
2014,07,18,14,09,21.60
2014,07,18,14,10,21.70
2014,07,18,14,11,21.80
2014,07,18,14,12,21.80
2014,07,18,14,13,21.80
2014,07,18,14,14,21.80
2014,07,18,14,15,21.80
2014,07,18,14,16,21.80
2014,07,18,14,17,21.80
2014,07,18,14,18,21.70
2014,07,18,14,19,21.70
2014,07,18,14,20,21.60
2014,07,18,14,21,21.50
2014,07,18,14,22,21.40
2014,07,18,14,23,21.30
2014,07,18,14,24,21.30
2014,07,18,14,25,21.40
2014,07,18,14,26,21.30
2014,07,18,14,27,21.40
2014,07,18,14,28,21.40
2014,07,18,14,29,21.40
2014,07,18,14,30,21.40
2014,07,18,14,31,21.40
2014,07,18,14,32,21.30
2014,07,18,14,33,21.30
2014,07,18,14,34,21.40
2014,07,18,14,35,21.40
2014,07,18,14,36,21.40
2014,07,18,14,37,21.40
2014,07,18,14,38,21.40
2014,07,18,14,39,21.40
2014,07,18,14,40,21.40
2014,07,18,14,41,21.30
2014,07,18,14,42,21.30
2014,07,18,14,43,21.30
2014,07,18,14,44,21.30
2014,07,18,14,45,21.30
2014,07,18,14,46,21.30
2014,07,18,14,47,21.40
2014,07,18,14,48,21.40
2014,07,18,14,49,21.40
2014,07,18,14,50,21.50
2014,07,18,14,51,21.50
2014,07,18,14,52,21.50
2014,07,18,14,53,21.50
2014,07,18,14,54,21.50
2014,07,18,14,55,21.60
2014,07,18,14,56,21.60
2014,07,18,14,57,21.80
2014,07,18,14,58,21.80
2014,07,18,14,59,21.80
2014,07,18,15,00,21.80
2014,07,18,15,01,21.70
2014,07,18,15,02,21.80
2014,07,18,15,03,21.80
2014,07,18,15,04,21.80
2014,07,18,15,05,21.80
2014,07,18,15,06,21.80
2014,07,18,15,07,21.90
2014,07,18,15,08,22.00
2014,07,18,15,09,22.10
2014,07,18,15,10,22.20
2014,07,18,15,11,22.10
2014,07,18,15,12,22.10
2014,07,18,15,13,22.10
2014,07,18,15,14,22.10
2014,07,18,15,15,22.20
2014,07,18,15,16,22.20
2014,07,18,15,17,22.30
2014,07,18,15,18,22.30
2014,07,18,15,19,22.30
2014,07,18,15,20,22.30
2014,07,18,15,21,22.20
2014,07,18,15,22,22.00
2014,07,18,15,23,21.90
2014,07,18,15,24,21.80
2014,07,18,15,25,21.80
2014,07,18,15,26,21.80
2014,07,18,15,27,21.80
2014,07,18,15,28,21.80
2014,07,18,15,29,21.80
2014,07,18,15,30,21.70
2014,07,18,15,31,21.80
2014,07,18,15,32,21.80
2014,07,18,15,33,21.80
2014,07,18,15,34,21.80
2014,07,18,15,35,21.70
2014,07,18,15,36,21.70
2014,07,18,15,37,21.70
2014,07,18,15,38,21.70
2014,07,18,15,39,21.70
2014,07,18,15,40,21.60
2014,07,18,15,41,21.60
2014,07,18,15,42,21.60
2014,07,18,15,43,21.60
2014,07,18,15,44,21.60
2014,07,18,15,45,21.60
2014,07,18,15,46,21.60
2014,07,18,15,47,21.60
2014,07,18,15,48,21.60
2014,07,18,15,49,21.60
2014,07,18,15,50,21.70
2014,07,18,15,51,21.70
2014,07,18,15,52,21.70
2014,07,18,15,53,21.70
2014,07,18,15,54,21.80
2014,07,18,15,55,21.80
2014,07,18,15,56,21.80
2014,07,18,15,57,21.80
2014,07,18,15,58,21.80
2014,07,18,15,59,21.90
2014,07,18,16,00,21.80
2014,07,18,16,01,21.90
2014,07,18,16,02,21.90
2014,07,18,16,03,21.90
2014,07,18,16,04,21.90
2014,07,18,16,05,21.90
2014,07,18,16,06,21.90
2014,07,18,16,07,21.90
2014,07,18,16,08,21.90
2014,07,18,16,09,22.00
2014,07,18,16,10,22.00
2014,07,18,16,11,22.10
2014,07,18,16,12,22.10
2014,07,18,16,13,22.20
2014,07,18,16,14,22.20
2014,07,18,16,15,22.20
2014,07,18,16,16,22.20
2014,07,18,16,17,22.20
2014,07,18,16,18,22.20
2014,07,18,16,19,22.10
2014,07,18,16,20,22.10
2014,07,18,16,21,22.10
2014,07,18,16,22,22.10
2014,07,18,16,23,22.00
2014,07,18,16,24,22.00
2014,07,18,16,25,22.00
2014,07,18,16,26,22.00
2014,07,18,16,27,22.10
2014,07,18,16,28,22.10
2014,07,18,16,29,22.10
2014,07,18,16,30,22.10
2014,07,18,16,31,22.10
2014,07,18,16,32,22.10
2014,07,18,16,33,22.20
2014,07,18,16,34,22.20
2014,07,18,16,35,22.30
2014,07,18,16,36,22.30
2014,07,18,16,37,22.40
2014,07,18,16,38,22.40
2014,07,18,16,39,22.40
2014,07,18,16,40,22.30
2014,07,18,16,41,22.20
2014,07,18,16,42,22.10
2014,07,18,16,43,22.10
2014,07,18,16,44,22.10
2014,07,18,16,45,22.10
2014,07,18,16,46,22.10
2014,07,18,16,47,22.10
2014,07,18,16,48,22.10
2014,07,18,16,49,22.10
2014,07,18,16,50,22.10
2014,07,18,16,51,22.10
2014,07,18,16,52,22.10
2014,07,18,16,53,22.10
2014,07,18,16,54,22.10
2014,07,18,16,55,22.20
2014,07,18,16,56,22.20
2014,07,18,16,57,22.20
2014,07,18,16,58,22.20
2014,07,18,16,59,22.20
2014,07,18,17,00,22.30
2014,07,18,17,01,22.30
2014,07,18,17,02,22.20
2014,07,18,17,03,22.20
2014,07,18,17,04,22.20
2014,07,18,17,05,22.20
2014,07,18,17,06,22.30
2014,07,18,17,07,22.40
2014,07,18,17,08,22.40
2014,07,18,17,09,22.40
2014,07,18,17,10,22.40
2014,07,18,17,11,22.40
2014,07,18,17,12,22.40
2014,07,18,17,13,22.40
2014,07,18,17,14,22.40
2014,07,18,17,15,22.40
2014,07,18,17,16,22.40
2014,07,18,17,17,22.40
2014,07,18,17,18,22.30
2014,07,18,17,19,22.20